Low Moor, IA

5:30 AM CST on February 22, 2017 (GMT -0600)
Clinton Municipal

Weather History for KCWI - November, 2013

Change the Weather History Date:

Tuesday, November 26, 2013

  Actual Average Record
Temperature  
Mean Temperature 19 °F -  
Max Temperature 30 °F 44 °F 66 °F (1965)
Min Temperature 8 °F 27 °F -8 °F (1977)
Degree Days  
Heating Degree Days 46    
Moisture  
Dew Point 15 °F    
Average Humidity 70    
Maximum Humidity 93    
Minimum Humidity 50    
Precipitation  
Precipitation 0.00 in - - ()
Sea Level Pressure  
Sea Level Pressure 30.16 in    
Wind  
Wind Speed 10 mph (NW)    
Max Wind Speed 21 mph    
Max Gust Speed 29 mph    
Visibility 10 miles    
Events      
Averages and records for this station are not official NWS values.
T = Trace of Precipitation, MM = Missing Value Source: NWS Daily Summary

Daily Weather History Graph

Daily Weather History Graph

Search for Another Location

Airport or City:

Trip Planner

Search our weather history database for the weather conditions in past years. The results will help you decide how hot, cold, wet, or windy it might be!

Date:

Astronomy

Nov. 26, 2013 Rise Set
Actual Time 7:04 AM CST 4:33 PM CST
Civil Twilight 6:33 AM CST 5:03 PM CST
Nautical Twilight 5:58 AM CST 5:38 PM CST
Astronomical Twilight 5:25 AM CST 6:11 PM CST
Moon 12:01 AM CST (11/26) 12:45 PM CST (11/26)
Length of Visible Light 10h 30m
Length of Day
9h 29m
Last Quarter, 41% of the Moon is Illuminated
Nov 26
Last Quarter
Dec 2
New
Dec 9
First Quarter
Dec 17
Full
Dec 25
Last Quarter

Hourly Weather History & Observations

Time (CST) Temp. Windchill Dew Point Humidity Pressure Visibility Wind Dir Wind Speed Gust Speed Precip Events Conditions
12:15 AM 24.8 °F 17.9 °F 21.2 °F 86% 30.10 in 10.0 mi West 5.8 mph - N/A   Partly Cloudy
12:35 AM 26.6 °F 20.0 °F 21.2 °F 80% 30.10 in 10.0 mi West 5.8 mph - N/A   Clear
12:55 AM 24.8 °F 16.9 °F 19.4 °F 80% 30.09 in 10.0 mi West 6.9 mph - N/A   Clear
1:15 AM 21.2 °F 11.7 °F 17.6 °F 86% 30.10 in 10.0 mi WSW 8.1 mph - N/A   Partly Cloudy
1:35 AM 21.2 °F 11.7 °F 17.6 °F 86% 30.10 in 10.0 mi West 8.1 mph - N/A   Clear
1:55 AM 21.2 °F 16.4 °F 19.4 °F 93% 30.11 in 10.0 mi SW 3.5 mph - N/A   Mostly Cloudy
2:15 AM 23.0 °F 17.0 °F 19.4 °F 86% 30.11 in 10.0 mi WSW 4.6 mph - N/A   Overcast
2:35 AM 26.6 °F 19.1 °F 21.2 °F 80% 30.11 in 10.0 mi West 6.9 mph - N/A   Overcast
2:55 AM 26.6 °F 20.0 °F 23.0 °F 86% 30.11 in 10.0 mi West 5.8 mph - N/A   Overcast
3:15 AM 28.4 °F 21.2 °F 24.8 °F 86% 30.10 in 10.0 mi West 6.9 mph - N/A   Overcast
3:35 AM 28.4 °F 22.2 °F 24.8 °F 86% 30.10 in 10.0 mi NW 5.8 mph - N/A   Overcast
3:55 AM 26.6 °F 22.6 °F 23.0 °F 86% 30.09 in 10.0 mi NW 3.5 mph - N/A   Overcast
4:15 AM 26.6 °F 21.2 °F 21.2 °F 80% 30.09 in 10.0 mi WNW 4.6 mph - N/A   Overcast
4:35 AM 24.8 °F 19.1 °F 21.2 °F 86% 30.09 in 9.0 mi West 4.6 mph - N/A   Mostly Cloudy
4:55 AM 24.8 °F 17.9 °F 21.2 °F 86% 30.09 in 9.0 mi West 5.8 mph - N/A   Overcast
5:15 AM 24.8 °F 16.9 °F 21.2 °F 86% 30.10 in 9.0 mi WSW 6.9 mph - N/A   Overcast
5:35 AM 26.6 °F 19.1 °F 21.2 °F 80% 30.10 in 10.0 mi West 6.9 mph - N/A   Overcast
5:55 AM 26.6 °F 17.5 °F 21.2 °F 80% 30.10 in 10.0 mi West 9.2 mph - N/A   Overcast
6:15 AM 26.6 °F 18.2 °F 23.0 °F 86% 30.11 in 10.0 mi West 8.1 mph - N/A   Overcast
6:35 AM 28.4 °F 20.4 °F 23.0 °F 80% 30.11 in 10.0 mi West 8.1 mph - N/A   Overcast
6:55 AM 28.4 °F 20.4 °F 21.2 °F 74% 30.11 in 10.0 mi WNW 8.1 mph - N/A   Overcast
7:15 AM 28.4 °F 20.4 °F 23.0 °F 80% 30.10 in 10.0 mi NW 8.1 mph - N/A   Overcast
7:35 AM 28.4 °F 18.5 °F 23.0 °F 80% 30.10 in 10.0 mi WNW 11.5 mph - N/A   Overcast
7:55 AM 28.4 °F 19.7 °F 23.0 °F 80% 30.09 in 10.0 mi WNW 9.2 mph - N/A   Overcast
8:15 AM 28.4 °F 19.1 °F 24.8 °F 86% 30.10 in 10.0 mi WNW 10.4 mph - N/A   Overcast
8:35 AM 30.2 °F 20.8 °F 23.0 °F 75% 30.10 in 10.0 mi WNW 11.5 mph - N/A   Overcast
8:55 AM 30.2 °F 19.8 °F 23.0 °F 75% 30.12 in 10.0 mi NW 13.8 mph - N/A   Overcast
9:15 AM 30.2 °F 19.8 °F 23.0 °F 75% 30.13 in 10.0 mi NW 13.8 mph - N/A   Overcast
9:35 AM 30.2 °F 19.3 °F 21.2 °F 69% 30.12 in 10.0 mi NW 15.0 mph - N/A   Overcast
9:55 AM 30.2 °F 19.3 °F 21.2 °F 69% 30.12 in 10.0 mi NW 15.0 mph - N/A   Overcast
10:15 AM 30.2 °F 19.3 °F 21.2 °F 69% 30.12 in 10.0 mi NW 15.0 mph - N/A   Overcast
10:35 AM 30.2 °F 18.5 °F 21.2 °F 69% 30.12 in 10.0 mi NW 17.3 mph - N/A   Overcast
10:55 AM 30.2 °F 17.8 °F 21.2 °F 69% 30.12 in 10.0 mi NW 19.6 mph - N/A   Overcast
11:15 AM 30.2 °F 18.1 °F 21.2 °F 69% 30.12 in 10.0 mi NW 18.4 mph 24.2 mph N/A   Overcast
11:35 AM 30.2 °F 18.1 °F 21.2 °F 69% 30.13 in 10.0 mi NW 18.4 mph 21.9 mph N/A   Overcast
11:55 AM 30.2 °F 17.4 °F 21.2 °F 69% 30.11 in 10.0 mi NW 20.7 mph - N/A   Overcast
12:15 PM 30.2 °F 17.4 °F 21.2 °F 69% 30.11 in 10.0 mi NW 20.7 mph 25.3 mph N/A   Overcast
12:35 PM 30.2 °F 18.1 °F 19.4 °F 64% 30.12 in 10.0 mi NW 18.4 mph 23.0 mph N/A   Overcast
12:55 PM 30.2 °F 18.1 °F 19.4 °F 64% 30.13 in 10.0 mi NW 18.4 mph - N/A   Overcast
1:15 PM 30.2 °F 17.8 °F 17.6 °F 60% 30.13 in 10.0 mi NW 19.6 mph - N/A   Mostly Cloudy
1:35 PM 30.2 °F 18.5 °F 17.6 °F 60% 30.13 in 10.0 mi NW 17.3 mph - N/A   Clear
1:55 PM 28.4 °F 15.8 °F 17.6 °F 64% 30.13 in 10.0 mi NW 18.4 mph 21.9 mph N/A   Partly Cloudy
2:15 PM 28.4 °F 15.8 °F 15.8 °F 59% 30.13 in 10.0 mi NW 18.4 mph 24.2 mph N/A   Partly Cloudy
2:35 PM 28.4 °F 15.4 °F 15.8 °F 59% 30.14 in 10.0 mi NW 19.6 mph 24.2 mph N/A   Clear
2:55 PM 28.4 °F 15.1 °F 14.0 °F 55% 30.14 in 10.0 mi NW 20.7 mph 26.5 mph N/A   Clear
3:15 PM 26.6 °F 13.4 °F 12.2 °F 55% 30.15 in 10.0 mi NW 18.4 mph 24.2 mph N/A   Clear
3:35 PM 26.6 °F 13.8 °F 10.4 °F 51% 30.15 in 10.0 mi NW 17.3 mph - N/A   Clear
3:55 PM 24.8 °F 10.3 °F 10.4 °F 54% 30.16 in 10.0 mi NW 20.7 mph 24.2 mph N/A   Clear
4:15 PM 24.8 °F 10.7 °F 8.6 °F 50% 30.17 in 10.0 mi NW 19.6 mph 28.8 mph N/A   Clear
4:35 PM 23.0 °F 8.7 °F 8.6 °F 54% 30.18 in 10.0 mi NW 18.4 mph 26.5 mph N/A   Clear
4:55 PM 21.2 °F 7.3 °F 8.6 °F 58% 30.19 in 10.0 mi NW 16.1 mph - N/A   Clear
5:15 PM 21.2 °F 6.8 °F 6.8 °F 54% 30.20 in 10.0 mi NW 17.3 mph 21.9 mph N/A   Clear
5:35 PM 21.2 °F 7.3 °F 6.8 °F 54% 30.21 in 10.0 mi NW 16.1 mph - N/A   Clear
5:55 PM 19.4 °F 4.5 °F 6.8 °F 58% 30.22 in 10.0 mi NW 17.3 mph 21.9 mph N/A   Clear
6:15 PM 19.4 °F 5.5 °F 6.8 °F 58% 30.22 in 10.0 mi NW 15.0 mph - N/A   Clear
6:35 PM 19.4 °F 5.5 °F 6.8 °F 58% 30.23 in 10.0 mi NNW 15.0 mph - N/A   Clear
6:55 PM 19.4 °F - 6.8 °F 58% 30.23 in 10.0 mi North - - N/A   Clear
7:15 PM 17.6 °F 6.4 °F 6.8 °F 63% 30.24 in 10.0 mi NNW 9.2 mph - N/A   Clear
7:35 PM 17.6 °F 5.7 °F 5.0 °F 58% 30.25 in 10.0 mi NNW 10.4 mph - N/A   Clear
7:55 PM 17.6 °F 4.3 °F 5.0 °F 58% 30.25 in 10.0 mi NNW 12.7 mph - N/A   Clear
8:15 PM 17.6 °F 5.0 °F 6.8 °F 63% 30.25 in 10.0 mi NNW 11.5 mph - N/A   Clear
8:35 PM 17.6 °F 3.7 °F 6.8 °F 63% 30.25 in 10.0 mi NNW 13.8 mph - N/A   Clear
8:55 PM 15.8 °F 4.2 °F 5.0 °F 62% 30.26 in 10.0 mi NNW 9.2 mph - N/A   Clear
9:15 PM 15.8 °F 7.2 °F 3.2 °F 58% 30.26 in 10.0 mi NNW 5.8 mph - N/A   Clear
9:35 PM 14.0 °F 3.9 °F 3.2 °F 62% 30.27 in 10.0 mi NW 6.9 mph - N/A   Clear
9:55 PM 10.4 °F 0.8 °F 3.2 °F 73% 30.27 in 10.0 mi NW 5.8 mph - N/A   Clear
10:15 PM 10.4 °F 0.8 °F 1.4 °F 67% 30.27 in 10.0 mi WNW 5.8 mph - N/A   Clear
10:35 PM 10.4 °F - 1.4 °F 67% 30.27 in 10.0 mi Calm Calm - N/A   Clear
10:55 PM 10.4 °F 0.8 °F 3.2 °F 73% 30.28 in 10.0 mi NW 5.8 mph - N/A   Clear
11:15 PM 8.6 °F -1.3 °F 1.4 °F 73% 30.28 in 10.0 mi NW 5.8 mph - N/A   Clear
11:35 PM 8.6 °F -1.3 °F 1.4 °F 73% 30.28 in 10.0 mi NW 5.8 mph - N/A   Clear
11:55 PM 10.4 °F 4.0 °F 3.2 °F 73% 30.27 in 10.0 mi NNW 3.5 mph - N/A   Clear